Location: Harbor Side
(32.6101°N, 117.0814°W)
Time: 06:15:07
(UTC+00:00)

SL-08 R/B - Pass Details

Date: 21 April 2021
Orbit: 673 x 740 km, 98.5° (Epoch: 13 May)

Event Time Altitude Azimuth Distance (km) Brightness Sun altitude
Exits shadow 12:02:13 20° 223° (SW) 1,650 4.7 -14.6°
Maximum altitude 12:04:24 28° 263° (W) 1,362 4.3 -14.1°
Drops below altitude 10° 12:08:33 10° 321° (NW) 2,213 5.7 -13.3°
Sets 12:11:07 0° 333° (NNW) 3,127 6.6 -12.8°
